www.pogodaiklimat.ru
ПОГОДА в Мэри Эстер
Время
и дата
00:07 23.05
00:19 23.05
00:26 23.05
00:37 23.05
00:56 23.05
01:15 23.05
01:24 23.05
01:27 23.05
01:56 23.05
02:26 23.05
02:56 23.05
03:06 23.05
03:56 23.05
04:56 23.05
05:40 23.05
05:45 23.05
05:50 23.05
05:56 23.05
06:17 23.05
06:56 23.05
07:52 23.05
07:56 23.05
08:00 23.05
08:35 23.05
08:49 23.05
08:56 23.05
09:40 23.05
09:56 23.05
10:01 23.05
10:56 23.05
11:06 23.05
11:12 23.05
11:17 23.05
11:27 23.05
11:51 23.05
11:56 23.05
12:03 23.05
12:11 23.05
12:56 23.05
13:12 23.05
13:27 23.05
13:56 23.05
13:59 23.05
14:32 23.05
14:43 23.05
14:56 23.05
15:56 23.05
16:56 23.05
Ветер
(напр.,м/с)
Видим. Явления Облачность Т
(С)
Тd
(С)
f
(%)
Тe
(С)
Тes
(С)
Комфортность P
(гПа)
Po
(гПа)
Тmin
(С)
Tmax
(С)
R
(мм)
R24
(мм)
S
(см)
Ю 5
{8}
8 км слабый дождь 10/10 м +25.0 +22.0 83 +32 +32 очень
душно
1015.7 1014.0
ЮЗ 4 16 км 10/8 60 м
[Ac]
+25.0 +22.0 83 +32 +32 очень
душно
1015.7 1014.0
ЮЗ 4
{6}
14 км слабый дождь 10/8 60 м
[Ac]
+25.0 +23.0 89 +33 +33 очень
душно
1015.7 1014.0
ЮЗ 4 16 км 10/8 420 м
[Ac]
+25.0 +23.0 89 +33 +33 очень
душно
1015.7 1014.0
ЮЗ 5
{5}
16 км 8/8 390 м
[Ac]
+25.2 +22.7 86 +33 +33 очень
душно
1015.7 1014.0
ЮЗ 4
{6}
14 км слабый дождь 10/8 420 м
[Ac]
+25.0 +23.0 89 +33 +33 очень
душно
1016.1 1014.4
ЮЗ 4
{6}
14 км слабый дождь 10/8 510 м
[Ac]
+25.0 +23.0 89 +33 +33 очень
душно
1016.1 1014.4
ЮЗ 3
{6}
16 км 10/8 510 м
[Ac]
+25.0 +23.0 89 +33 +33 очень
душно
1016.4 1014.7
ЮЗ 3
{4}
16 км 10/2 450 м
[Ac]
+25.1 +22.4 85 +33 +33 очень
душно
1016.4 1014.7
З 3
{4}
16 км 8/8 450 м
[Ac]
+25.0 +22.0 83 +32 +32 очень
душно
1016.4 1014.7
З 2 16 км 10/10 420 м +25.0 +22.3 85 +33 +33 очень
душно
1016.7 1015.0 1.0
ЮЗ 2 14 км слабый дождь 10/10 420 м +25.0 +23.0 89 +33 +33 очень
душно
1016.7 1015.0
З 1 16 км 8/0 2400 м
[Ac]
+23.7 +21.7 89 +30 +30 очень
душно
1016.4 1014.7
штиль 0 16 км 8/5 300 м
[Ac]
+23.0 +21.6 92 +31 +31 очень
душно
1017.8 1016.0 +22.5 +25.6 5.3 32.5
С 1 16 км слабая морось 8/0 2550 м
[Ac]
+23.0 +22.0 94 +31 +31 очень
душно
1017.8 1016.0
С 1 16 км 8/0 2550 м
[Ac]
+23.0 +22.0 94 +31 +31 очень
душно
1017.8 1016.0
СЗ 1 16 км слабая морось 8/0 2550 м
[Ac]
+23.0 +22.0 94 +31 +31 очень
душно
1018.1 1016.4
С 1 6 км дождь 10/0 2550 м
[Ac]
+22.7 +21.3 92 +30 +30 очень
душно
1018.1 1016.4
С 1 6 км дождь 10/0 2550 м
[Ac]
+22.7 +21.3 92 +30 +30 очень
душно
1018.1 1016.4
С 1 8 км слабый дождь 10/8 1230 м
[Ac]
+22.6 +21.2 92 +30 +30 очень
душно
1018.1 1016.4
штиль 0 16 км 8/0 3900 м
[Ac]
+23.0 +22.0 94 +31 +34 очень
душно
1018.1 1016.4
штиль 0 16 км 8/0 3600 м
[Ac]
+22.9 +21.7 93 +31 +33 очень
душно
1018.1 1016.4
штиль 0 16 км слабый дождь 8/0 2850 м
[Ac]
+23.0 +22.0 94 +31 +36 очень
душно
1018.1 1016.4
штиль 0 16 км слабый дождь 8/0 3600 м
[Ac]
+24.0 +22.0 89 +31 +36 очень
душно
1018.4 1016.7
штиль 0 16 км 10/0 3600 м
[Ac]
+24.0 +22.0 89 +31 +35 очень
душно
1018.4 1016.7
штиль 0 16 км 10/0 3600 м
[Ac]
+24.0 +22.2 90 +31 +35 очень
душно
1018.4 1016.7 1.0
ЮЗ 1 14 км слабый дождь 8/5 450 м
[Ac]
+25.0 +22.0 83 +32 +37 очень
душно
1018.8 1017.1
штиль 0 16 км 10/2 1140 м
[Ac]
+24.7 +22.4 87 +32 +40 очень
душно
1018.8 1017.1
З 1 16 км слабый дождь 10/5 1110 м
[Ac]
+25.0 +23.0 89 +33 +38 очень
душно
1018.8 1017.1
ЮЗ 3 8 км слабый дождь 10/8 360 м
[Ac]
+23.9 +20.4 81 +30 +30 очень
душно
1019.8 1018.1
З 4
{7}
5 км слабый дождь 10/10 м +23.0 +19.0 78 +29 +29 очень
душно
1020.5 1018.8
З 4
{5}
5 км дождь 10/10 90 м +22.0 +19.0 83 +27 +27 душно 1020.5 1018.8
З 4
{5}
3 км сильный дождь 10/10 390 м +21.0 +19.0 88 +25 +25 комфорт 1020.5 1018.8
З 3
{5}
6 км слабый дождь 10/10 90 м +21.0 +19.0 88 +25 +25 комфорт 1020.1 1018.4
З 2
{4}
6 км дождь 5/5 270 м +22.0 +20.0 88 +28 +33 душно 1020.1 1018.4
З 3
{4}
5 км гроза с сильным дождем 8/8 270 м +21.7 +19.8 89 +27 +28 душно 1020.1 1018.4 +21.2 +24.9 3.6
З 3
{4}
0 м гроза с дождем 10/0 2400 м
[Ac]
+22.0 +20.0 88 +28 +30 душно 1019.8 1018.1
З 2 5 км дождь 10/0 2400 м
[Ac]
+22.0 +20.0 88 +28 +31 душно 1019.8 1018.1
З 1 6 км слабый дождь 10/0 2550 м
[Ac]
+21.3 +18.3 83 +26 +31 душно 1019.1 1017.4
СЗ 1 6 км гроза со слабым дождем 10/0 2550 м
[Ac]
+21.0 +19.0 88 +26 +32 душно 1018.4 1016.7
СВ 1 16 км слабый дождь 10/8 1800 м
[Ac]
+22.0 +19.0 83 +27 +29 душно 1017.4 1015.7
СВ 1 10 км слабая морось 8/0 3300 м
[Ac]
+21.3 +19.4 89 +26 +35 душно 1016.7 1015.0
СВ 1 16 км 8/0 3300 м
[Ac]
+21.0 +20.0 94 +27 +35 душно 1016.4 1014.7
В 1 10 км слабая морось 5/0 3900 м
[Ac]
+23.0 +20.0 83 +30 +40 очень
душно
1015.4 1013.7
В 1 16 км 8/5 1200 м
[Ac]
+24.0 +20.0 78 +29 +34 душно 1015.4 1013.7
В 1 16 км 8/5 1800 м
[Ac]
+24.2 +19.9 77 +30 +35 очень
душно
1015.0 1013.3 3.0
штиль 0 16 км 8/0 5100 м
[Ac]
+25.0 +18.2 66 +29 +36 душно 1015.4 1013.7
Ю 1 16 км 8/0 5400 м
[Ac Ci]
+25.2 +18.8 68 +30 +33 душно 1016.4 1014.7
Местоположение метеостанции Hurlburt Field Airport: широта 30.4167 долгота -86.6833 высота над уровнем моря 12 м.
В архиве по умолчанию представлена погода в Мэри Эстер за последние 1-2 суток. Обновление информации о фактической погоде в базе происходит ежечасно! Архивные данные за месяц целиком и за предыдущие месяцы Вы можете получить, выбрав интересующий диапазон дат из раскрывающегося списка и нажав кнопку "Ввод!".
Внимание! Архив погоды МЕТАР в базе сайта по станциям, не включенным в климатический монитор, хранится не более 60 дней. Нет смысла пытаться выбрать более раннюю дату.
*Определитесь, кто Вы:
Внимание! Время в таблицах - местное (без учета летнего времени). Для получения всемирного времени необходимо вычесть поправку, которая равна -6 ч.
Смотрите также архив погоды в соседних городах и на ближайших метеорологических станциях:
Партнеры нашего сайта:      
Пояснения к столбцам:
  • Ветер - указаны скорость ветра в м/с - средняя за 10 мин, порывы в срок и между сроками (в фигурных скобках) и направление, откуда дует ветер: С - северный,
  • СВ - северо-восточный, В - восточный, ЮВ - юго-восточный, Ю - южный, ЮЗ - юго-западный, З - западный, СЗ - северо-западный.
  • Видимость - горизонтальная дальность видимости в метрах или километрах. При видимости от 1 до 10 км при отсутствии осадков обычно наблюдается дымка, при ухудшении видимости до 1 км и менее - туман. В сухую погоду видимость может ухудшаться дымом, пылью или мглою.
  • Явления - указаны атмосферные явления, наблюдавшиеся в срок или в последний час перед сроком; фигурными скобками обозначены явления, наблюдавшиеся между сроками (за 1-3 часа до срока); квадратными скобками обозначены град или гололедные отложения с указанием их диаметра в мм.
  • Облачность - указаны через наклонную черту общая и нижняя облачность в баллах и высота нижней границы облаков в метрах; квадратными скобками обозначены формы облаков: Ci - перистые, Cs - перисто-слоистые, Cc - перисто-кучевые, Ac - высококучевые, As - высокослоистые, Sc - слоисто-кучевые, Ns - слоисто-дождевые, Cu - кучевые, Cb - кучево-дождевые. Подробнее классификацию облаков см. в Атласе облаков (PDF).
  • T - Температура воздуха - температура, измеренная на высоте 2 м над землей.
  • Td - Температура точки росы - температура, при понижении до которой содержащийся в воздухе водяной пар достигнет насыщения.
  • f - Относительная влажность воздуха - влажноcть воздуха, измеренная на высоте 2 м над землей.
  • Te - Эффективная температура - температура, которую ощущает одетый по сезону человек в тени. Характеристика душности погоды. При расчете учитывается влияние влажности воздуха и скорости ветра на теплоощущения человека.
  • Tes - Эффективная температура на солнце - температура, которую ощущает человек, с поправкой на солнечный нагрев. Характеристика знойности погоды. Зависит от высоты солнца над горизонтом, облачности и скорости ветра. Ночью, в пасмурную погоду, а также при ветре 12 м/с и более поправка равна нулю.
  • P - Атмосферное давление - приведенное к уровню моря атмосферное давление.
  • Po - Атмосферное давление - измеренное на уровне метеостанции атмосферное давление.
  • Tmin - Минимальная температура - минимум температуры воздуха на высоте 2 м над землей.
  • Tmax - Максимальная температура - максимум температуры воздуха на высоте 2 м над землей.
  • R - Количество осадков - Количество выпавших осадков за период времени, мм. При наведении курсора мыши на число - период времени, за который выпало указанное количество осадков.
  • R24 - Количество осадков - Количество выпавших осадков за 24 часа, мм.
  • S - Снежный покров - Высота снежного покрова, см. При наведении курсора мыши на число - состояние снежного покрова и степень покрытия местности в баллах.